1333670427629,137.658
1333670487629,137.929
1333670547629,137.903
1333670607629,137.695
1333670667629,137.715
1333670727629,137.391
1333670787629,137.903
1333670847629,137.693
1333670907629,137.902
1333670967629,137.832
1333671027629,137.697
1333671087629,137.996
1333671147629,137.333
1333671207629,137.610
1333671267629,137.628
1333671327629,137.579
1333671387629,137.649
1333671447629,137.483
1333671507629,137.593
1333671567629,137.655
1333671627629,137.378
1333671687629,137.147
1333671747629,137.432
1333671807629,137.494
1333671867629,137.695
1333671927629,137.562
1333671987629,137.402
1333672047629,137.361
1333672107629,137.331
1333672167629,137.209
1333672227629,137.319
1333672287629,136.981
1333672347629,137.408
1333672407629,137.282
1333672467629,137.346
1333672527629,137.112
1333672587629,137.150
1333672647629,136.860
1333672707629,137.145
1333672767629,137.374
1333672827629,137.621
1333672887629,137.346
1333672947629,137.210
1333673007629,137.359
1333673067629,137.363
1333673127629,137.352
1333673187629,137.383
1333673247629,137.182
1333673307629,137.607
1333673367629,137.529
1333673427629,137.778
1333673487629,137.364
1333673547629,137.721
1333673607629,137.593
1333673667629,137.866
1333673727629,137.547
1333673787629,137.498
1333673847629,137.407
1333673907629,137.728
1333673967629,137.326
1333674027641,137.428
1333674087641,137.484
1333674147641,137.547
1333674207641,137.537
1333674267641,137.563
1333674327641,137.413
1333674387641,137.782
1333674447641,137.868
1333674507641,137.717
1333674567641,137.713
1333674627641,137.611
1333674687641,137.840
1333674747641,137.752
1333674807641,137.850
1333674867641,137.724
1333674927641,137.730
1333674987641,137.508
1333675047641,137.795
1333675107641,137.789
1333675167641,137.662
1333675227641,137.461
1333675287641,137.787
1333675347641,137.433
1333675407641,137.382
1333675467641,137.587
1333675527641,137.458
1333675587641,137.389
1333675647641,137.440
1333675707641,137.519
1333675767641,137.369
1333675827641,137.333
1333675887641,137.290
1333675947641,137.481
1333676007641,137.002
1333676067641,137.043
1333676127641,137.106
1333676187641,137.322
1333676247641,137.171
1333676307641,137.186
1333676367641,137.073
1333676427641,137.293
1333676487641,137.059
1333676547641,137.018
1333676607641,137.126
1333676667641,137.383
1333676727641,137.018
1333676787641,137.013
1333676847641,137.228
1333676907641,137.072
1333676967641,137.104
1333677027641,137.102
1333677087641,137.412
1333677147641,137.017
1333677207641,137.124
1333677267641,137.192
1333677327641,137.137
1333677387641,137.167
1333677447641,137.268
1333677507641,137.067
1333677567641,136.863
1333677627652,136.994
1333677687652,137.149
1333677747652,137.206
1333677807652,137.065
1333677867652,137.204
1333677927652,136.940
1333677987652,136.768
1333678047652,136.789
1333678107652,136.934
1333678167652,136.815
1333678227652,136.874
1333678287652,137.209
1333678347652,136.558
1333678407652,136.828
1333678467652,136.852
1333678527652,136.835
1333678587652,136.602
1333678647652,136.604
1333678707652,136.806
1333678767652,136.757
1333678827652,137.061
1333678887652,136.870
1333678947652,136.911
1333679007652,136.900
1333679067652,136.821
1333679127652,136.762
1333679187652,136.819
1333679247652,136.827
1333679307652,136.698
1333679367652,136.681
1333679427652,136.639
1333679487652,136.897
1333679547652,136.803
1333679607652,136.641
1333679667652,136.731
1333679727652,136.724
1333679787652,136.873
1333679847652,136.774
1333679907652,136.583
1333679967652,136.764
1333680027652,136.560
1333680087652,136.606
1333680147652,136.527
1333680207652,136.730
1333680267652,136.617
1333680327652,136.698
1333680387652,136.697
1333680447652,136.381
1333680507652,136.428
1333680567652,136.720
1333680627652,136.675
1333680687652,136.604
1333680747652,136.714
1333680807652,136.629
1333680867652,136.610
1333680927652,136.352
1333680987652,136.454
1333681047652,136.425
1333681107652,136.638
1333681167652,136.707
1333681227664,136.750
1333681287664,136.364
1333681347664,136.779
1333681407664,136.661
1333681467664,136.727
1333681527664,136.527
1333681587664,136.696
1333681647664,136.682
1333681707664,136.888
1333681767664,136.803
1333681827664,136.473
1333681887664,136.907
1333681947664,136.751
1333682007664,136.822
1333682067664,136.665
1333682127664,136.724
1333682187664,136.600
1333682247664,136.681
1333682307664,136.748
1333682367664,136.666
1333682427664,136.738
1333682487664,136.709
1333682547664,136.604
1333682607664,136.819
1333682667664,136.633
1333682727664,137.079
1333682787664,136.942
1333682847664,136.912
1333682907664,136.861
1333682967664,136.737
1333683027664,136.939
1333683087664,136.827
1333683147664,136.642
1333683207664,136.955
1333683267664,137.032
1333683327664,137.025
1333683387664,136.932
1333683447664,137.020
1333683507664,137.008
1333683567664,137.151
1333683627664,137.015
1333683687664,136.947
1333683747664,136.883
1333683807664,137.226
1333683867664,137.090
1333683927664,136.893
1333683987664,137.157
1333684047664,137.078
1333684107664,137.260
1333684167664,136.966
1333684227664,137.171
1333684287664,137.125
1333684347664,136.919
1333684407664,137.186
1333684467664,136.992
1333684527664,137.230
1333684587664,136.741
1333684647664,136.926
1333684707664,137.330
1333684767664,136.853
1333684827675,137.099
1333684887675,136.991
1333684947675,137.052
1333685007675,137.124
1333685067675,136.986
1333685127675,137.114
1333685187675,137.316
1333685247675,136.865
1333685307675,136.977
1333685367675,137.014
1333685427675,137.051
1333685487675,137.202
1333685547675,137.191
1333685607675,137.198
1333685667675,137.275
1333685727675,137.012
1333685787675,137.324
1333685847675,136.938
1333685907675,136.818
1333685967675,136.853
1333686027675,136.962
1333686087675,136.965
1333686147675,136.895
1333686207675,136.819
1333686267675,136.834
1333686327675,136.778
1333686387675,136.902
1333686447675,136.933
1333686507675,136.808
1333686567675,136.985
1333686627675,136.813
1333686687675,136.964
1333686747675,137.181
1333686807675,136.547
1333686867675,137.033
1333686927675,136.976
1333686987675,136.789
1333687047675,136.724
1333687107675,136.806
1333687167675,136.906
1333687227675,136.866
1333687287675,136.790
1333687347675,136.772
1333687407675,136.788
1333687467675,136.529
1333687527675,136.521
1333687587675,136.652
1333687647675,136.791
1333687707675,136.630
1333687767675,136.917
1333687827675,136.605
1333687887675,136.742
1333687947675,136.618
1333688007675,136.646
1333688067675,136.489
1333688127675,136.398
1333688187675,136.808
1333688247675,136.757
1333688307675,136.396
1333688367675,136.673
1333688427687,136.602
1333688487687,136.474
1333688547687,136.762
1333688607687,136.702
1333688667687,136.610
1333688727687,136.497
1333688787687,136.328
1333688847687,136.800
1333688907687,136.633
1333688967687,136.633
1333689027687,136.488
1333689087687,136.567
1333689147687,136.549
1333689207687,136.285
1333689267687,136.524
1333689327687,136.334
1333689387687,136.762
1333689447687,136.632
1333689507687,136.583
1333689567687,136.280
1333689627687,136.837
1333689687687,136.610
1333689747687,136.336
1333689807687,136.570
1333689867687,136.517
1333689927687,136.707
1333689987687,136.336
1333690047687,136.484
1333690107687,136.569
1333690167687,136.587
1333690227687,136.619
1333690287687,136.711
1333690347687,136.603
1333690407687,136.721
1333690467687,136.702
1333690527687,136.601
1333690587687,136.467
1333690647687,136.382
1333690707687,136.334
1333690767687,136.735
1333690827687,136.448
1333690887687,136.335
1333690947687,136.326
1333691007687,136.359
1333691067687,136.503
1333691127687,136.380
1333691187687,136.437
1333691247687,136.413
1333691307687,136.696
1333691367687,136.455
1333691427687,136.495
1333691487687,136.627
1333691547687,136.351
1333691607687,136.872
1333691667687,136.493
1333691727687,136.891
1333691787687,136.737
1333691847687,136.666
1333691907687,136.814
1333691967687,136.622
1333692027698,137.001
1333692087698,136.901
1333692147698,136.938
1333692207698,137.064
1333692267698,137.008
1333692327698,136.584
1333692387698,136.681
1333692447698,136.807
1333692507698,136.670
1333692567698,136.936
1333692627698,136.769
1333692687698,136.741
1333692747698,136.664
1333692807698,136.773
1333692867698,136.819
1333692927698,136.709
1333692987698,136.971
1333693047698,136.994
1333693107698,136.930
1333693167698,137.080
1333693227698,136.975
1333693287698,137.216
1333693347698,137.036
1333693407698,137.267
1333693467698,137.304
1333693527698,137.449
1333693587698,137.610
1333693647698,137.553
1333693707698,138.005
1333693767698,137.382
1333693827698,137.523
1333693887698,137.478
1333693947698,137.501
1333694007698,137.644
1333694067698,137.523
1333694127698,137.254
1333694187698,137.258
1333694247698,137.618
1333694307698,137.403
1333694367698,137.439
1333694427698,137.411
1333694487698,137.472
1333694547698,137.507
1333694607698,137.600
1333694667698,137.301
1333694727698,137.588
1333694787698,137.374
1333694847698,137.381
1333694907698,137.204
1333694967698,137.276
1333695027698,137.329
1333695087698,137.251
1333695147698,137.110
1333695207698,137.350
1333695267698,137.235
1333695327698,137.294
1333695387698,137.261
1333695447698,137.202
1333695507698,137.189
1333695567698,137.183
1333695627709,137.071
1333695687709,136.882
1333695747709,137.289
1333695807709,137.204
1333695867709,137.078
1333695927709,137.483
1333695987709,136.949
1333696047709,137.133
1333696107709,137.037
1333696167709,137.351
1333696227709,137.402
1333696287709,137.170
1333696347709,137.060
1333696407709,137.172
1333696467709,137.163
1333696527709,137.156
1333696587709,137.130
1333696647709,137.345
1333696707709,137.275
1333696767709,137.411
1333696827709,137.326
1333696887709,137.391
1333696947709,137.428
1333697007709,137.204
1333697067709,137.085
1333697127709,137.218
1333697187709,137.003
1333697247709,137.116
1333697307709,137.531
1333697367709,137.492
1333697427709,137.385
1333697487709,137.224
1333697547709,137.277
1333697607709,136.952
1333697667709,137.151
1333697727709,137.495
1333697787709,137.111
1333697847709,137.531
1333697907709,137.314
1333697967709,137.499
1333698027709,137.370
1333698087709,137.715
1333698147709,137.595
1333698207709,137.326
1333698267709,137.315
1333698327709,137.551
1333698387709,137.480
1333698447709,137.438
1333698507709,137.771
1333698567709,137.815
1333698627709,137.594
1333698687709,137.515
1333698747709,137.631
1333698807709,137.360
1333698867709,137.447
1333698927709,137.547
1333698987709,137.398
1333699047709,137.571
1333699107709,137.769
1333699167709,137.370
1333699227721,137.645
1333699287721,137.772
1333699347721,137.921
1333699407721,137.534
1333699467721,137.629
1333699527721,137.449
1333699587721,137.560
1333699647721,137.736
1333699707721,137.678
1333699767721,137.595
1333699827721,137.475
1333699887721,137.888
1333699947721,137.734
1333700007721,137.451
1333700067721,137.419
1333700127721,137.499
1333700187721,137.409
1333700247721,137.513
1333700307721,137.479
1333700367721,137.228
1333700427721,137.358
1333700487721,137.586
1333700547721,137.509
1333700607721,137.544
1333700667721,137.103
1333700727721,137.527
1333700787721,137.392
1333700847721,137.328
1333700907721,137.368
1333700967721,137.316
1333701027721,137.400
1333701087721,137.412
1333701147721,137.080
1333701207721,137.481
1333701267721,137.556
1333701327721,137.393
1333701387721,137.115
1333701447721,137.656
1333701507721,137.344
1333701567721,137.357
1333701627721,137.483
1333701687721,137.610
1333701747721,137.292
1333701807721,137.569
1333701867721,137.565
1333701927721,137.182
1333701987721,137.321
1333702047721,137.365
1333702107721,137.045
1333702167721,137.375
1333702227721,137.288
1333702287721,137.522
1333702347721,137.347
1333702407721,137.314
1333702467721,137.314
1333702527721,137.381
1333702587721,137.118
1333702647721,137.214
1333702707721,137.139
1333702767721,137.444
1333702827732,137.717
1333702887732,137.616
1333702947732,137.341
1333703007732,137.281
1333703067732,137.407
1333703127732,137.307
1333703187732,137.109
1333703247732,137.199
1333703307732,137.276
1333703367732,137.472
1333703427732,137.156
1333703487732,136.978
1333704027732,137.451
1333704087732,137.007
1333704147732,137.121
1333704207732,137.418
1333704267732,137.315
1333704327732,137.262
1333704387732,137.527
1333704447732,137.204
1333704507732,137.441
1333704567732,137.597
1333704627732,137.155
1333704687732,137.021
1333704747732,137.167
1333704807732,137.278
1333704867732,137.222
1333704927732,137.315
1333704987732,137.647
1333705047732,137.088
1333705107732,137.100
1333705167732,137.166
1333705227732,137.165
1333705287732,137.125
1333705347732,137.196
1333705407732,137.567
1333705467732,137.302
1333705527732,137.180
1333705587732,137.112
1333705647732,137.187
1333705707732,136.950
1333705767732,137.314
1333705827732,136.861
1333705887732,136.924
1333705947732,136.985
1333706007732,137.035
1333706067732,136.977
1333706127732,137.232
1333706187732,137.224
1333706247732,137.196
1333706307732,137.269
1333706367732,136.956
1333706427743,137.029
1333706487743,137.270
1333706547743,137.197
1333706607743,137.282
1333706667743,136.949
1333706727743,137.271
1333706787743,137.074
1333706847743,136.833
1333706907743,137.162
1333706967743,136.966
1333707027743,137.215
1333707087743,136.945
1333707147743,137.107
1333707207743,137.011
1333707267743,137.033
1333707327743,137.184
1333707387743,136.746
1333707447743,137.020
1333707507743,137.183
1333707567743,136.976
1333707627743,137.002
1333707687743,136.828
1333707747743,136.924
1333707807743,136.735
1333707867743,136.775
1333707927743,136.621
1333707987743,136.562
1333708047743,136.878
1333708107743,136.738
1333708167743,136.943
1333708227743,136.656
1333708287743,136.806
1333708347743,136.922
1333708407743,136.952
1333708467743,136.388
1333708527743,136.433
1333708587743,136.361
1333708647743,136.700
1333708707743,136.569
1333708767743,136.618
1333708827743,136.578
1333708887743,136.791
1333708947743,136.600
1333709007743,136.646
1333709067743,136.875
1333709127743,136.905
1333709187743,136.757
1333709247743,136.892
1333709307743,136.886
1333709367743,136.823
1333709427743,136.669
1333709487743,136.547
1333709547743,136.473
1333709607743,136.750
1333709667743,136.819
1333709727743,136.315
1333709787743,136.514
1333709847743,136.564
1333709907743,136.714
1333709967743,136.337
1333710027755,136.714
1333710087755,136.491
1333710147755,136.471
1333710207755,136.594
1333710267755,136.735
1333710327755,136.738
1333710387755,136.570
1333710447755,136.716
1333710507755,136.605
1333710567755,136.641
1333710627755,136.270
1333710687755,136.618
1333710747755,136.512
1333710807755,136.686
1333710867755,136.424
1333710927755,136.511
1333710987755,136.531
1333711047755,136.606
1333711107755,136.596
1333711167755,136.412
1333711227755,136.574
1333711287755,136.586
1333711347755,136.492
1333711407755,136.470
1333711467755,136.579
1333711527755,136.999
1333711587755,136.389
1333711647755,136.812
1333711707755,136.959
1333711767755,136.347
1333711827755,136.531
1333711887755,136.537
1333711947755,136.512
1333712007755,136.386
1333712067755,136.557
1333712127755,136.555
1333712187755,136.283
1333712247755,136.327
1333712307755,136.590
1333712367755,136.384
1333712427755,136.463
1333712487755,136.465
1333712547755,136.449
1333712607755,136.318
1333712667755,136.434
1333712727755,136.612
1333712787755,136.534
1333712847755,136.758
1333712907755,136.051
1333712967755,136.527
1333713027755,136.658
1333713087755,136.468
1333713147755,136.836
1333713207755,136.601
1333713267755,136.326
1333713327755,136.089
1333713387755,136.327
1333713447755,136.179
1333713507755,136.190
1333713567755,136.217
1333713627766,136.349
1333713687766,136.500
1333713747766,136.152
1333713807766,136.529
1333713867766,136.367
1333713927766,136.446
1333713987766,136.259
1333714047766,136.384
1333714107766,136.549
1333714167766,136.417
1333714227766,136.282
1333714287766,136.418
1333714347766,136.161
1333714407766,136.332
1333714467766,136.322
1333714527766,136.332
1333714587766,136.355
1333714647766,136.509
1333714707766,136.497
1333714767766,136.427
1333714827766,136.149
1333714887766,136.447
1333714947766,136.546
1333715007766,136.492
1333715067766,136.368
1333715127766,136.297
1333715187766,136.333
1333715247766,136.274
1333715307766,135.993
1333715367766,136.484
1333715427766,136.390
1333715487766,136.496
1333715547766,136.273
1333715607766,136.431
1333715667766,136.483
1333715727766,136.640
1333715787766,136.498
1333715847766,136.422
1333715907766,136.565
1333715967766,136.331
1333716027766,136.371
1333716087766,136.424
1333716147766,136.416
1333716207766,136.409
1333716267766,136.199
1333716327766,136.353
1333716387766,136.521
1333716447766,136.408
1333716507766,136.643
1333716567766,136.747
1333716627766,136.576
1333716687766,136.402
1333716747766,136.492
1333716807766,136.538
1333716867766,136.416
1333716927766,136.424
1333716987766,136.367
1333717047766,136.382
1333717107766,136.626
1333717167766,136.461
1333717227777,136.632
1333717287777,136.663
1333717347777,136.417
1333717407777,136.606
1333717467777,136.517
1333717527777,136.649
1333717587777,136.113
1333717647777,136.480
1333717707777,136.277
1333717767777,136.264
1333717827777,136.300
1333717887777,136.248
1333717947777,136.053
1333718007777,136.408
1333718067777,136.376
1333718127777,136.223
1333718187777,136.280
1333718247777,136.334
1333718307777,136.354
1333718367777,136.354
1333718427777,136.500
1333718487777,136.603
1333718547777,136.329
1333718607777,136.081
1333718667777,136.192
1333718727777,136.091
1333718787777,135.834
1333718847777,136.269
1333718907777,136.301
1333718967777,136.424
1333719027777,136.337
1333719087777,136.144
1333719147777,136.264
1333719207777,136.569
1333719267777,136.159
1333719327777,136.160
1333719387777,136.562
1333719447777,136.174
1333719507777,136.169
1333719567777,136.004
1333719627777,136.292
1333719687777,136.029
1333719747777,136.346
1333719807777,136.055
1333719867777,136.004
1333719927777,136.056
1333719987777,136.263
1333720047777,136.360
1333720107777,136.310
1333720167777,136.078
1333720227777,136.204
1333720287777,136.254
1333720347777,136.187
1333720407777,136.111
1333720467777,136.657
1333720527777,136.588
1333720587777,136.123
1333720647777,136.346
1333720707777,136.145
1333720767777,136.345
1333720827788,136.091
1333720887788,136.337
1333720947788,136.278
1333721007788,136.165
1333721067788,136.490
1333721127788,136.385
1333721187788,136.571
1333721247788,136.462
1333721307788,136.308
1333721367788,136.474
1333721427788,136.021
1333721487788,136.401
1333721547788,136.274
1333721607788,136.508
1333721667788,136.436
1333721727788,136.126
1333721787788,136.294
1333721847788,136.145
1333721907788,136.178
1333721967788,136.249
1333722027788,136.484
1333722087788,136.189
1333722147788,136.368
1333722207788,136.348
1333722267788,136.767
1333722327788,136.433
1333722387788,136.619
1333722447788,136.157
1333722507788,136.402
1333722567788,136.573
1333722627788,136.169
1333722687788,136.302
1333722747788,136.259
1333722807788,136.297
1333722867788,136.305
1333722927788,136.385
1333722987788,136.580
1333723047788,136.502
1333723107788,136.564
1333723167788,136.353
1333723227788,136.753
1333723287788,136.866
1333723347788,136.468
1333723407788,136.598
1333723467788,136.400
1333723527788,136.149
1333723587788,136.551
1333723647788,136.403
1333723707788,136.256
1333723767788,136.348
1333723827788,136.440
1333723887788,136.533
1333723947788,136.265
1333724007788,136.518
1333724067788,136.410
1333724127788,136.163
1333724187788,136.121
1333724247788,136.248
1333724307788,136.588
1333724367788,136.210
1333724427799,136.142
1333724487799,136.620
1333724547799,136.466
1333724607799,136.495
1333724667799,136.404
1333724727799,136.456
1333724787799,136.465
1333724847799,136.692
1333724907799,136.458
1333724967799,136.529
1333725027799,136.587
1333725087799,136.398
1333725147799,136.582
1333725207799,136.547
1333725267799,136.273
1333725327799,136.851
1333725387799,136.321
1333725447799,136.672
1333725507799,136.664
1333725567799,136.805
1333725627799,136.632
1333725687799,136.664
1333725747799,136.729
1333725807799,136.986
1333725867799,136.837
1333725927799,136.979
1333725987799,136.886
1333726047799,137.063
1333726107799,137.097
1333726167799,136.992
1333726227799,136.957
1333726287799,136.939
1333726347799,136.683
1333726407799,137.031
1333726467799,136.991
1333726527799,137.116
1333726587799,136.893
1333726647799,137.268
1333726707799,137.282
1333726767799,137.320
1333726827799,137.257
1333726887799,137.399
1333726947799,137.153
1333727007799,137.445
1333727067799,137.406
1333727127799,137.120
1333727187799,137.078
1333727247799,137.184
1333727307799,137.209
1333727367799,137.363
1333727427799,137.219
1333727487799,137.180
1333727547799,137.134
1333727607799,137.307
1333727667799,137.174
1333727727799,137.253
1333727787799,137.527
1333727847799,137.566
1333727907799,137.536
1333727967799,137.308
1333728027810,137.496
1333728087810,137.731
1333728147810,137.626
1333728207810,137.752
1333728267810,137.393
1333728327810,137.523
1333728387810,137.469
1333728447810,137.549
1333728507810,137.617
1333728567810,137.571
1333728627810,137.407
1333728687810,137.297
1333728747810,137.597
1333728807810,137.569
1333728867810,137.643
1333728927810,137.633
1333728987810,137.157
1333729047810,137.639
1333729107810,137.551
1333729167810,137.470
1333729227810,137.617
1333729287810,137.674
1333729347810,137.506
1333729407810,137.518
1333729467810,137.530
1333729527810,137.470
1333729587810,137.624
1333729647810,137.606
1333729707810,137.306
1333729767810,137.628
1333729827810,137.588
1333729887810,137.932
1333729947810,137.372
1333730007810,137.292
1333730067810,137.533
1333730127810,137.213
1333730187810,137.384
1333730247810,137.512
1333730307810,137.360
1333730367810,137.248
1333730427810,137.250
1333730487810,137.370
1333730547810,137.198
1333730607810,137.523
1333730667810,137.368
1333730727810,137.262
1333730787810,137.209
1333730847810,137.180
1333730907810,137.172
1333730967810,137.131
1333731027810,137.346
1333731087810,137.190
1333731147810,137.019
1333731207810,137.016
1333731267810,137.196
1333731327810,137.207
1333731387810,136.975
1333731447810,137.144
1333731507810,136.921
1333731567810,136.966
1333731627821,137.089
1333731687821,137.002
1333731747821,136.896
1333731807821,137.034
1333731867821,137.258
1333731927821,137.062
1333731987821,136.862
1333732047821,137.150
1333732107821,136.799
1333732167821,136.929
1333732227821,136.955
1333732287821,136.713
1333732347821,136.828
1333732407821,136.659
1333732467821,136.765
1333732527821,136.755
1333732587821,136.572
1333732647821,136.743
1333732707821,136.818
1333732767821,136.956
1333732827821,136.854
1333732887821,136.504
1333732947821,136.836
1333733007821,136.846
1333733067821,137.015
1333733127821,136.957
1333733187821,136.960
1333733247821,136.726
1333733307821,136.806
1333733367821,136.829
1333733427821,136.747
1333733487821,136.882
1333733547821,136.945
1333733607821,137.186
1333733667821,137.059
1333733727821,136.483
1333733787821,136.790
1333733847821,136.699
1333733907821,137.136
1333733967821,136.611
1333734027821,137.201
1333734087821,136.970
1333734147821,136.744
1333734207821,136.804
1333734267821,136.886
1333734327821,136.915
1333734387821,136.988
1333734447821,136.626
1333734507821,136.908
1333734567821,136.620
1333734627821,136.808
1333734687821,136.662
1333734747821,136.704
1333734807821,136.495
1333734867821,136.313
1333734927821,136.803
1333734987821,136.481
1333735047821,136.931
1333735107821,136.497
1333735167821,136.708
1333735227832,136.635
1333735287832,136.752
1333735347832,136.566
1333735407832,136.717
1333735467832,136.358
1333735527832,136.277
1333735587832,136.392
1333735647832,136.254
1333735707832,136.174
1333735767832,136.426
1333735827832,136.301
1333735887832,136.389
1333735947832,136.189
1333736007832,136.426
1333736067832,136.500
1333736127832,136.048
1333736187832,136.410
1333736247832,136.213